Back to catalog

STARLINK-36439

AliveCommunicationsVLEO
NORAD 67624·PAYLOAD·🇺🇸 United States

Launched Jan 30, 2026 from Cape Canaveral Space Force Station

Loading…

Next Passes (next 24 hours)

TLE

FreshSource: CelesTrak SupGP

Epoch: Sep 14, 2026, 14:45 UTC

1 67624C 26020H   26257.61506944  .00036874  00000+0  13361-2 0  2572
2 67624  43.0001 152.7802 0001433 257.6248 256.0303 15.27548815    11

Track STARLINK-36439 in real time with AllMySat

Download on the App Store